Hourly Data Report for July 09, 2017

All times are specified in Local Standard Time (LST). Add 1 hour to adjust for Daylight Saving Time where and when it is observed.

LUTSELK'E CS
NORTHWEST TERRITORIES

62°24'56.030" N
110°41'25.070" W
178.90 m
220L002
71529
XLU

Download Data

Hourly Data (July 2017)
Hourly Data Report for July 9, 2017
Temp Definition
°C
Dew Point Temp Definition
°C
Rel Hum Definition
%
Wind Dir Definition
10's deg

Wind Spd Definition
km/h
Visibility Definition
km
Stn Press Definition
kPa
Hmdx Definition


Wind Chill Definition


Weather Definition


TIME
00:00 12.6 8.0 74 LegendMM LegendMM   99.33     LegendNANA
01:00 15.9 11.1 73 LegendMM LegendMM   99.36     LegendNANA
02:00 15.8 10.3 70 LegendMM LegendMM   99.36     LegendNANA
03:00 16.3 11.4 73 LegendMM LegendMM   99.37     LegendNANA
04:00 16.6 11.9 74 LegendMM LegendMM   99.38     LegendNANA
05:00 16.9 12.7 77 LegendMM LegendMM   99.39     LegendNANA
06:00 18.4 10.7 61 LegendMM LegendMM   99.40     LegendNANA
07:00 18.7 10.5 59 LegendMM LegendMM   99.39     LegendNANA
08:00 20.1 10.1 53 LegendMM LegendMM   99.36     LegendNANA
09:00 21.4 10.2 49 LegendMM LegendMM   99.34     LegendNANA
10:00 23.1 10.3 44 LegendMM LegendMM   99.31 25   LegendNANA
11:00 23.9 9.9 41 LegendMM LegendMM   99.29 25   LegendNANA
12:00 24.8 8.7 36 LegendMM LegendMM   99.27 26   LegendNANA
13:00 25.6 8.7 34 LegendMM LegendMM   99.24 26   LegendNANA
14:00 25.5 9.2 36 LegendMM LegendMM   99.20 26   LegendNANA
15:00 25.6 9.3 36 LegendMM LegendMM   99.16 27   LegendNANA
16:00 26.1 8.6 33 LegendMM LegendMM   99.11 27   LegendNANA
17:00 26.8 7.9 30 LegendMM LegendMM   99.05 27   LegendNANA
18:00 26.2 6.6 29 LegendMM LegendMM   99.00 26   LegendNANA
19:00 26.1 6.1 28 LegendMM LegendMM   98.98 26   LegendNANA
20:00 25.5 5.9 28 LegendMM LegendMM   98.96 25   LegendNANA
21:00 22.7 9.4 43 LegendMM LegendMM   98.95     LegendNANA
22:00 20.5 5.8 38 LegendMM LegendMM   98.97     LegendNANA
23:00 19.5 6.8 44 LegendMM LegendMM   98.98     LegendNANA

Notes on Data Quality.

Legend

  • E = Estimated
  • M = Missing
  • NA = Not Available
  • ‡ = Partner data that is not subject to review by the National Climate Archives
Date modified: